Cloud_Cover
0 0 0 0 2 4 52 81 56 5 37 5 5 100 100 100 100 100 99 100 97 68 4 3 5 5 12 13 6 5 30 30 5 5 4 5 5 0 0 3 19 57 14 99
0 0 0 0 0 37 10 69 80 53 7 71 5 65 98 100 100 100 99 96 87 100 31 11 71 5 5 27 100 51 5 64 68 6 5 18 5 0 0 0 56 100 28 12
0 0 0 0 0 38 27 5 6 13 5 6 40 24 20 95 94 100 71 75 85 100 100 50 94 87 90 8 88 100 13 87 36 5 5 5 3 4 1 0 2 68 100 100
0 0 0 0 0 2 16 0 5 5 5 5 5 5 24 88 66 91 20 44 49 43 93 97 37 99 100 76 13 100 2 7 5 5 5 1 1 5 4 2 0 5 6 5
0 0 0 0 0 8 5 0 0 3 5 5 5 5 5 5 100 92 100 66 91 99 99 100 97 26 100 79 6 100 2 0 0 0 5 0 0 3 50 2 0 5 4 4
0 0 0 0 0 5 0 0 5 5 4 3 5 4 5 4 0 38 100 88 72 100 100 89 100 30 100 82 13 82 3 0 0 0 4 4 3 2 5 12 6 5 0 0
0 0 0 0 0 0 1 5 47 34 3 5 92 11 5 4 0 0 1 46 97 99 100 100 87 99 100 100 9 33 68 0 0 0 0 0 0 1 32 20 75 88 4 3
0 0 0 0 0 0 4 7 56 40 4 2 1 2 0 0 0 0 0 0 67 97 99 97 90 99 100 76 5 69 95 3 0 0 0 0 0 0 4 9 7 19 5 4
0 0 0 0 0 0 0 5 6 5 5 0 0 0 0 0 0 0 0 0 0 50 99 100 100 100 100 100 99 92 48 80 0 0 0 0 0 0 4 4 5 36 1 0
0 1 0 5 1 2 0 0 0 0 2 3 0 0 0 0 0 0 0 0 0 0 98 21 98 100 100 100 97 75 12 5 3 0 0 0 0 0 0 0 0 0 0 0
2 3 0 0 5 4 0 0 0 0 0 0 0 0 0 0 0 0 0 0 0 0 0 83 29 75 94 80 100 100 48 5 5 3 1 1 0 0 0 0 4 4 0 3
0 0 0 0 0 2 0 0 0 0 0 0 0 0 0 0 0 0 0 0 0 0 0 0 16 11 100 100 100 75 100 8 76 5 5 5 5 7 4 5 0 4 3 4
7 0 0 0 0 0 0 0 0 0 0 0 0 0 0 0 0 0 0 0 0 0 27 44 96 78 84 100 100 100 29 37 5 6 5 0 4 98 100 87 17 0 0 0
6 5 5 7 5 4 0 0 0 0 0 0 0 0 0 0 0 0 0 0 0 0 16 89 100 100 85 100 100 100 99 61 5 20 4 4 1 5 78 100 75 3 1 3
5 5 5 5 5 5 1 0 0 0 0 0 0 0 0 0 0 0 0 0 0 0 0 46 68 100 100 100 100 100 100 100 19 34 20 13 5 2 4 97 100 4 1 3
5 5 5 4 0 0 0 0 0 0 0 0 0 0 0 0 0 0 0 0 0 0 0 5 95 100 100 100 100 100 91 99 96 89 88 44 50 65 60 5 2 4 5 2
76 5 5 5 2 0 0 0 0 0 0 0 0 0 0 0 0 0 0 0 0 0 0 4 100 100 99 94 100 100 100 100 100 100 91 80 92 100 100 85 57 14 7 6
100 47 5 5 5 5 0 0 0 0 0 0 0 0 0 0 0 0 0 0 0 7 39 62 8 23 100 100 100 100 100 100 100 100 100 87 100 100 100 100 92 98 90 100
100 100 22 5 5 5 1 0 3 4 0 2 0 0 0 0 0 0 0 7 29 61 100 71 100 100 98 97 82 100 100 100 100 99 100 92 100 100 100 100 100 100 100 100
100 100 100 18 9 54 4 1 12 22 5 5 0 0 0 0 0 0 5 61 40 53 94 99 90 99 98 66 94 97 100 100 100 100 100 97 92 100 100 98 100 100 100 100
100 100 100 100 48 45 5 5 6 43 8 4 4 0 0 0 0 0 1 77 38 58 66 54 66 57 10 88 100 100 99 100 100 100 100 100 98 100 100 100 100 100 100 100
100 100 100 100 100 100 100 58 5 59 24 14 7 2 3 0 0 0 0 19 37 2 0 0 0 5 2 88 98 100 100 100 100 100 100 100 100 100 100 100 100 100 100 100
100 100 100 100 100 100 98 5 63 93 74 34 5 4 0 0 0 0 0 0 0 0 0 0 0 0 0 26 100 100 100 99 100 100 100 100 100 100 100 100 100 100 100 100
100 100 100 100 100 100 100 14 36 20 92 100 79 7 5 1 5 0 0 0 0 0 0 0 0 7 24 72 44 100 100 100 100 100 100 100 100 100 100 100 100 100 100 100
100 100 100 100 100 100 100 37 90 23 73 81 100 38 5 3 5 1 0 0 0 0 0 0 4 16 98 65 49 76 100 100 100 100 100 100 100 100 100 99 98 100 100 100
100 100 100 100 100 100 85 96 100 28 11 61 100 28 5 5 4 0 0 0 0 0 0 0 5 49 94 75 32 100 100 100 100 100 100 100 100 92 100 98 100 100 100 100